Location: La Savane
(18.0962°N, 63.0646°W)
Time: 07:21:56
(UTC+00:00)

Envisat - Pass Details

Date: 29 October 2020
Orbit: 764 x 766 km, 98.1° (Epoch: 28 November)

Event Time Altitude Azimuth Distance (km) Brightness Sun altitude
Rises 21:53:44 0° 178° (S) 3,219 6.4 -3.7°
Reaches altitude 10° 21:56:05 10° 182° (S) 2,294 5.7 -4.3°
Maximum altitude 22:01:01 54° 259° (W) 925 4.0 -5.4°
Drops below altitude 10° 22:05:58 10° 336° (NNW) 2,299 5.6 -6.6°
Sets 22:08:19 0° 341° (NNW) 3,226 6.3 -7.1°
